Regional Weather Roundup
Issued by NWS San Angelo, TX

Home | Current Version | Previous Version | Text Only | Print | Product List | Glossary On
Versions: 1 2 3 4 5 6 7 8 9 10 11 12 13 14 15 16 17 18 19 20 21 22 23 24 25 26 27 28 29 30 31 32 33 34 35 36 37 38 39 40 41 42 43 44 45 46 47 48 49 50
000
ASUS44 KSJT 261710
RWRSJT
WEST CENTRAL TEXAS REGIONAL WEATHER ROUNDUP
NATIONAL WEATHER SERVICE SAN ANGELO TX
1200 PM CDT TUE SEP 26 2017

NOTE: "FAIR" INDICATES FEW OR NO CLOUDS BELOW 12,000 FEET WITH NO
SIGNIFICANT WEATHER AND/OR OBSTRUCTIONS TO VISIBILITY.

TXZ049-054-064>066-071>073-076>078-098-099-113-114-127-128-139-140-
154-155-168>170-261800
...LOCATIONS ACROSS WEST CENTRAL TEXAS...

CITY           SKY/WX    TMP DP  RH WIND       PRES   REMARKS
SAN ANGELO     CLOUDY    78  64  61 S12       29.96F
ABILENE        CLOUDY    76  70  82 VRB6      29.97F
DYESS AFB      PTSUNNY   77  70  80 S3        29.95F
JUNCTION       CLOUDY    77  69  76 CALM      29.95F
SWEETWATER     CLOUDY    73  69  88 N10G16    30.02S
BROWNWOOD      CLOUDY    81  70  69 SE6       29.96F
COLEMAN        LGT RAIN  70  69  95 SW5       29.98R
SONORA         CLOUDY    75  68  78 CALM      30.01S
OZONA          CLOUDY    73  68  83 S12       30.00S
BRADY          NOT AVBL
$$

TEXAS PANHANDLE/OKLAHOMA PANHANDLE

CITY           SKY/WX    TMP DP  RH WIND       PRES   REMARKS
AMARILLO       NOT AVBL
BORGER         CLOUDY    58  52  80 N13       30.18R
CANADIAN       CLOUDY    58  55  88 N10       30.16R
DALHART        CLOUDY    54  50  86 NE15      30.20S
DUMAS          CLOUDY    52  49  90 N12       30.19R
GUYMON         NOT AVBL
HEREFORD       CLOUDY    55  55  99 NE16G24   30.15F
PAMPA          CLOUDY    57  55  91 NE14      30.18S
PERRYTON       CLOUDY    58  53  80 N10G17    30.18R
$$

SOUTHERN PANHANDLE/SOUTH PLAINS/ROLLING PLAINS

CITY           SKY/WX    TMP DP  RH WIND       PRES   REMARKS
LUBBOCK        HVY RAIN  59  58  96 N17       30.09S FOG
SNYDER         LGT RAIN  66  66  99 NE13      30.01F
CHILDRESS      CLOUDY    63  59  87 N16       30.08R
SEMINOLE       DRIZZLE   62  61  97 NE16G24   30.07S
$$

PERMIAN BASIN

CITY           SKY/WX    TMP DP  RH WIND       PRES   REMARKS
MIDLAND        PTSUNNY   76  67  73 SE5       29.98F
ODESSA         LGT RAIN  70  66  87 N14G21    30.00S
WINK           PTSUNNY   69  65  86 NE12      29.97F
$$

FAR WEST/SOUTHWEST MOUNTAINS/TRANS PECOS

CITY           SKY/WX    TMP DP  RH WIND       PRES   REMARKS
ALPINE         MOSUNNY   72  56  57 NW10      30.09S
DRYDEN           N/A     75  69  81 SE12      29.93S
EL PASO        MOSUNNY   75  60  59 NE10      30.00S
FORT STOCKTON  NOT AVBL
GUADALUPE PASS NOT AVBL
MARFA          SUNNY     69  55  60 NE13      30.06
PECOS          MOSUNNY   75  65  71 CALM      29.96R
$$

DALLAS/FORT WORTH METROPLEX

CITY           SKY/WX    TMP DP  RH WIND       PRES   REMARKS
DFW AIRPORT    CLOUDY    86  69  56 S8        29.94S
FTW MEACHAM    CLOUDY    85  70  60 SE7       29.95S
DAL-EXECUTIVE  CLOUDY    85  68  56 VRB6      29.95R
GRAND PRAIRIE  SUNNY     84  64  51 SE9       29.97S
ADDISON        CLOUDY    82  66  57 S10       29.97S
MESQUITE       MOSUNNY   86  66  51 S8        29.95F
LANCASTER      CLOUDY    85  67  55 S5        29.95F
$$

NORTH CENTRAL TEXAS

CITY           SKY/WX    TMP DP  RH WIND       PRES   REMARKS
SHRMAN/DENISON PTSUNNY   82  68  62 S7        29.98F
GAINESVILLE    CLOUDY    79  69  73 SE6       29.99S
BRIDGEPORT     CLOUDY    75  74  95 E3        29.99S
DENTON         CLOUDY    81  70  69 E6        29.96S
WAXAHACHIE     PTSUNNY   85  68  56 S3        29.96F
GRANBURY       PTSUNNY   83  71  66 S6        29.97S
$$

WESTERN NORTH TEXAS

CITY           SKY/WX    TMP DP  RH WIND       PRES   REMARKS
WICHITA FALLS  NOT AVBL
VERNON         CLOUDY    67  63  86 N13G18    30.02R
BRECKENRIDGE   CLOUDY    79  69  72 S7        29.96F HAZE
COMANCHE       PTSUNNY   78  74  88 E5        29.97S
$$

CENTRAL AND SOUTH CENTRAL TEXAS

CITY           SKY/WX    TMP DP  RH WIND       PRES   REMARKS
AUSTIN/BERGSTM PTSUNNY   83  74  74 E8        29.91S
WACO           PTSUNNY   86  69  56 SE7       29.93F
HILLSBORO      CLOUDY    85  67  55 SE8       29.95S
TEMPLE         MOSUNNY   85  72  65 SE9       29.93F
KILLEEN-GRAY   CLOUDY    86  72  62 SE10      29.93F
FORT HOOD      PTSUNNY  N/A N/A N/A S8        29.90F
GEORGETOWN     CLOUDY    82  71  69 E6        29.94F
LAGO VISTA     FAIR      80  72  75 SE6       29.95S
SAN MARCOS     LGT RAIN N/A N/A N/A W14       29.92S
NEW BRAUNFELS  LGT RAIN  76  72  87 N3        29.90S
RANDOLPH AFB   PTSUNNY   75  75 100 E5        29.91S
SAN ANTONIO    LGT RAIN  77  74  90 E8        29.91F FOG
STINSON        LGT RAIN  80  77  90 SE7       29.88S
PLEASANTON     NOT AVBL
LA GRANGE      CLOUDY    87  75  67 SE8       29.89F
GIDDINGS       CLOUDY    83  71  66 E8        29.93S
$$

EAST TEXAS

CITY           SKY/WX    TMP DP  RH WIND       PRES   REMARKS
PARIS          SUNNY     87  68  52 S5        29.98F
CLARKSVILLE    NOT AVBL
TYLER          SUNNY     86  65  49 VRB7      29.95F
LONGVIEW       PTSUNNY   87  68  52 SE6       29.95F
PALESTINE      MOSUNNY   86  70  58 E7        29.95F
NACOGDOCHES    SUNNY     86  70  58 E6        29.95F
$$

TEXAS HILL COUNTRY AND EDWARDS PLATEAU

CITY           SKY/WX    TMP DP  RH WIND       PRES   REMARKS
LLANO          LGT RAIN  73  72  94 CALM      29.99R
HORSESHOE BAY  PTSUNNY   75  72  90 SW3       29.95S
KERRVILLE      CLOUDY    76  73  90 SE6       29.96R
FREDERICKSBRG  PTSUNNY   73  69  87 CALM      29.97S
ROCKSPRINGS    NOT AVBL
HONDO          CLOUDY    77  71  82 E8        29.91S
UVALDE         LGT RAIN  76  72  88 E6        29.91F
DEL RIO        CLOUDY    80  71  74 SE10      29.89S
$$

SOUTHEAST TEXAS

CITY           SKY/WX    TMP DP  RH WIND       PRES   REMARKS
COLLEGE STN    CLOUDY    84  73  69 SE7       29.92F
CALDWELL       CLOUDY    82  73  74 E7        29.93F
CROCKETT       MOSUNNY   86  70  58 SE6       29.97F
BRENHAM        CLOUDY    86  73  64 E7        29.92F
HUNTSVILLE     CLOUDY    83  69  62 CALM      29.94S
CONROE         MOSUNNY   86  70  58 S7        29.93S
HOUSTON BUSH   MOSUNNY   87  73  62 SE3       29.91F
HOUSTON HOBBY  MOSUNNY   89  72  56 SE9       29.90F
PERLAND        PTSUNNY   89  70  53 SE6       29.92S
WHARTON        PTSUNNY   87  72  60 SE6       29.90S
$$

THE UPPER TEXAS COAST

CITY           SKY/WX    TMP DP  RH WIND       PRES   REMARKS
ORANGE         MOSUNNY   86  74  68 NE5       29.94F
PORT ARTHUR    PTSUNNY   86  70  58 VRB3      29.91F
GALVESTON      MOSUNNY   87  75  67 E10G18    29.92R
ANGLETON       MOSUNNY   90  74  59 SE10G18   29.90S
BAY CITY       MOSUNNY   89  73  58 E9        29.89S
$$

TEXAS COASTAL BEND, RIO GRANDE PLAINS DEEP SOUTH TEXAS

CITY           SKY/WX    TMP DP  RH WIND       PRES   REMARKS
VICTORIA       LGT RAIN  78  72  81 SE7       29.88S
BEEVILLE       HVY RAIN  79  75  87 S7        29.87R
ROCKPORT       PTSUNNY   86  77  74 SE14      29.85F
PORT ARANSAS   NOT AVBL
PORT LAVACA    PTSUNNY   87  75  67 SE17G24   29.87S
CORPUS CHRISTI CLOUDY    89  76  65 SE15      29.84S
KINGSVILLE NAS LGT RAIN  85  78  80 SE13      29.84S
COTULLA        LGT RAIN  78  77  96 E6        29.87R FOG
LAREDO         LGT RAIN  81  77  88 E10       29.83F
BROWNSVILLE    MOSUNNY   90  77  65 SE20      29.83S
PORT ISABEL    PTSUNNY   92  77  61 SE18      29.82F
HEBBRONVILLE   CLOUDY    83  74  73 SE16      29.85F
MCALLEN        CLOUDY    83  77  82 SE10      29.82S
WESLACO        RAIN      81  77  88 SW3       29.81S
FALFURRIAS     PTSUNNY  -38  32 100 SE12      29.82F WCI -64
EDINBURG       CLOUDY    83  73  72 S16G26    29.83R THUNDER
$$




USA.gov is the U.S. government's official web portal to all federal, state and local government web resources and services.